Location: Écuvilly
(49.6505°N, 2.9206°E)
Time: 17:08:49
(UTC+00:00)

IRAS Rocket - Pass Details

Date: 17 November 2025
Orbit: 845 x 876 km, 100.1° (Epoch: 10 December)

Event Time Altitude Azimuth Distance (km) Brightness Sun altitude
Rises 17:44:33 0° 152° (SSE) 3,438 7.2 -16.3°
Reaches altitude 10° 17:46:56 10° 150° (SSE) 2,500 6.5 -16.6°
Maximum altitude 17:52:26 69° 69° (ENE) 921 4.1 -17.5°
Drops below altitude 10° 17:57:56 10° 347° (NNW) 2,496 6.7 -18.4°
Sets 18:00:19 0° 345° (NNW) 3,433 7.5 -18.8°
